User: anonymous   Login
Location: Franzen
(48.6167°N, 15.3833°E)
Time: 16:10:31
(UTC+00:00)
Language:

Cosmos 2082 - Orbit

View from above orbital plane
View from above orbital plane
View from above satellite
View from above satellite

Ground track
Ground track

The orbit data is extracted from the following two-line orbital elements,

1 20624U 90046A   21168.93752663  .00000144  00000-0  99885-4 0  9994
2 20624  71.0418  34.7569 0016430 312.7619  47.2120 14.14362841603610
Epoch (UTC): 17 June 2021 22:30:02
Eccentricity: 0.0016430
inclination: 71.0418°
perigee height: 832 km
apogee height: 856 km
right ascension of ascending node: 34.7569°
argument of perigee: 312.7619°
revolutions per day: 14.14362841
mean anomaly at epoch: 47.2120°
orbit number at epoch: 60361

The dashed part of the orbit path shows where the satellite is in the earth's shadow,  

DLR